Regional Weather Roundup
Issued by NWS

Home | Current Version | Previous Version | Graphics & Text | Print | Product List | Glossary On
Versions: 1 2 3 4 5 6 7 8 9 10 11 12 13 14 15 16 17 18 19 20 21 22 23 24 25 26 27 28 29 30 31 32 33 34 35 36 37 38 39 40 41 42 43 44 45 46 47 48 49 50
000
ASUS43 KTOP 050608
RWRKS

WEATHER ROUNDUP FOR KANSAS
NATIONAL WEATHER SERVICE GOODLAND KS
1200 AM CST THU MAR 05 2015

NOTE:  "FAIR" INDICATES FEW OR NO CLOUDS BELOW 12,000 FEET WITH NO
SIGNIFICANT WEATHER AND/OR OBSTRUCTIONS TO VISIBILITY.

KSZ001>006-013>018-027>032-041>047-050700-
NORTHWEST KANSAS

CITY           SKY/WX    TMP DP  RH WIND       PRES   REMARKS
GOODLAND       CLEAR     16  10  77 W9        30.30F
6HR MIN TEMP:  15; 6HR MAX TEMP:  27;

HAYS           CLEAR     16   0  48 W3        30.38S
HILL CITY      MOCLDY    12   3  67 W3        30.37F
6HR MIN TEMP:  10; 6HR MAX TEMP:  31;

RUSSELL        CLEAR     15   4  61 SW6       30.38S
6HR MIN TEMP:  14; 6HR MAX TEMP:  30;

$$

KSZ061>065-074>080-084>089-050700-
SOUTHWEST KANSAS

CITY           SKY/WX    TMP DP  RH WIND       PRES   REMARKS
DODGE CITY     CLEAR     18   6  59 SW6       30.39R
6HR MIN TEMP:  17; 6HR MAX TEMP:  29;

ELKHART          N/A     19  12  74 W5          N/A
GARDEN CITY    CLEAR     18  11  74 W5        30.37S
6HR MIN TEMP:  16; 6HR MAX TEMP:  28;

GREAT BEND     CLEAR     12   3  67 CALM      30.41S
LIBERAL        CLEAR     10   3  72 W6        30.39F
PRATT          CLEAR     10   3  72 CALM      30.41S
$$

KSZ066>073-081>083-090>101-050700-
SOUTHEAST KANSAS

CITY           SKY/WX    TMP DP  RH WIND       PRES   REMARKS
CHANUTE        CLOUDY    22  13  68 NW3       30.42R
6HR MIN TEMP:  22; 6HR MAX TEMP:  27;

COFFEYVILLE    CLOUDY    24  13  62 NW5       30.42F
6HR MIN TEMP:  24; 6HR MAX TEMP:  27;

HUTCHINSON     CLEAR     12   6  77 CALM      30.42R
6HR MIN TEMP:  12; 6HR MAX TEMP:  31;

MEDICINE LODGE   N/A     18  13  80 NW3       30.43S
NEWTON         CLEAR     18   3  53 N3        30.41S
PARSONS        CLOUDY    23  14  68 CALM      30.43R
6HR MIN TEMP:  23; 6HR MAX TEMP:  27;

WICHITA INTL   PTCLDY    20  10  65 NW5       30.42S
6HR MIN TEMP:  16; 6HR MAX TEMP:  30;

WICHITA JABRA  CLEAR     19   7  59 NW6       30.41S
6HR MIN TEMP:  19; 6HR MAX TEMP:  28;

WICHITA MCCONL CLEAR     21   9  58 NW1       30.41S
WINFIELD       PTCLDY    21  14  74 W3        30.43F
6HR MIN TEMP:  20; 6HR MAX TEMP:  29;

$$

KSZ007>012-019>026-033>040-048>060-102>105-050700-
NORTHEAST KANSAS

CITY           SKY/WX    TMP DP  RH WIND       PRES   REMARKS
CONCORDIA      CLEAR     16   4  59 NE7       30.43S
6HR MIN TEMP:  16; 6HR MAX TEMP:  29;

EMPORIA        PTCLDY    19   8  62 NW5       30.41R
6HR MIN TEMP:  19; 6HR MAX TEMP:  28;

LAWRENCE       CLEAR     20   3  48 N8        30.44R
6HR MIN TEMP:  19; 6HR MAX TEMP:  29;

MANHATTAN      CLEAR     18   6  59 CALM      30.44R
6HR MIN TEMP:  18; 6HR MAX TEMP:  30;

MARYSVILLE     CLEAR     14   3  62 N7        30.44S
OLATHE IND     PTCLDY    21   6  52 N8        30.42R
6HR MIN TEMP:  20; 6HR MAX TEMP:  26;

OLATHE EXE     PTCLDY    23   1  38 N13       30.40R WCI  11
6HR MIN TEMP:  23; 6HR MAX TEMP:  27;

SALINA         CLEAR     18   6  59 NW3       30.44R
6HR MIN TEMP:  18; 6HR MAX TEMP:  32;

TOPEKA BILLARD CLEAR     20   4  50 N10       30.45R WCI   9
6HR MIN TEMP:  20; 6HR MAX TEMP:  30;

TOPEKA FORBES  CLEAR     22   4  46 N7        30.42R
6HR MIN TEMP:  20; 6HR MAX TEMP:  31;

$$



USA.gov is the U.S. government's official web portal to all federal, state and local government web resources and services.